Weather History for Fredericksburg, TX

Change the Weather History Date:

Thursday, March 21, 2013

  Actual Average (KSAT) Record (KSAT)
Temperature  
Mean Temperature 60 °F 63 °F  
Max Temperature 70 °F 75 °F 94 °F (1904)
Min Temperature 52 °F 52 °F 28 °F (1965)
Degree Days  
Heating Degree Days 4 4  
Month to date heating degree days 120  
Since 1 July heating degree days 1421  
Cooling Degree Days 0 2  
Month to date cooling degree days 37  
Year to date cooling degree days 63  
Growing Degree Days 10 (Base 50)    
Moisture  
Dew Point 50 °F    
Average Humidity 64    
Maximum Humidity 82    
Minimum Humidity 33    
Precipitation  
Precipitation 0.00 in 0.08 in 0.99 in (1929)
Month to date precipitation 1.58  
Year to date precipitation 5.13  
Snow  
Snow 0.00 in - - ()
Month to date snowfall  
Since 1 July snowfall  
Snow Depth -    
Sea Level Pressure  
Sea Level Pressure 29.80 in    
Wind  
Wind Speed 9 mph (SSW)    
Max Wind Speed 23 mph    
Max Gust Speed 29 mph    
Visibility 10 miles    
Events      
T = Trace of Precipitation, MM = Missing Value Source: NWS Daily Summary

Daily Weather History Graph

Daily Weather History Graph

Search for Another Location

Airport:

Trip Planner

Search our weather history database for the weather conditions in past years. The results will help you decide how hot, cold, wet, or windy it might be!

Date:

Astronomy

Mar. 21, 2013 Rise Set
Actual Time 7:37 AM CDT 7:47 PM CDT
Civil Twilight 7:13 AM CDT 8:11 PM CDT
Nautical Twilight 6:46 AM CDT 8:39 PM CDT
Astronomical Twilight 6:17 AM CDT 9:08 PM CDT
Moon 2:39 PM CDT (3/21) 3:40 AM CDT (3/21)
Length of Visible Light 12h 57m
Length of Day
12h 10m
Waxing Gibbous, 69% of the Moon is Illuminated
Mar 21
Waxing Gibbous
Mar 27
Full
Apr 2
Last Quarter
Apr 10
New
Apr 18
First Quarter

Hourly Weather History & Observations

Time (CDT) Temp. Dew Point Humidity Pressure Visibility Wind Dir Wind Speed Gust Speed Precip Events Conditions
12:15 AM 54.3 °F 38.7 °F 55% 30.03 in 10.0 mi Calm Calm - N/A   Scattered Clouds
12:35 AM 52.9 °F 40.6 °F 63% 30.02 in 10.0 mi Calm Calm - N/A   Scattered Clouds
12:55 AM 54.3 °F 37.8 °F 54% 30.01 in 10.0 mi SE 3.5 mph - N/A   Mostly Cloudy
1:15 AM 54.9 °F 37.8 °F 53% 30.00 in 10.0 mi Calm Calm - N/A   Mostly Cloudy
1:35 AM 54.3 °F 38.5 °F 55% 29.99 in 10.0 mi Calm Calm - N/A   Mostly Cloudy
1:55 AM 53.8 °F 39.0 °F 57% 29.99 in 10.0 mi Calm Calm - N/A   Mostly Cloudy
2:15 AM 54.5 °F 40.6 °F 60% 29.99 in 10.0 mi Calm Calm - N/A   Overcast
2:35 AM 55.8 °F 39.2 °F 54% 29.99 in 10.0 mi South 3.5 mph - N/A   Overcast
3:15 AM 57.0 °F 41.0 °F 55% 29.97 in 10.0 mi South 5.8 mph - N/A   Overcast
3:35 AM 56.8 °F 41.5 °F 57% 29.96 in 10.0 mi South 8.1 mph - N/A   Overcast
3:55 AM 57.2 °F 41.4 °F 55% 29.95 in 10.0 mi South 6.9 mph - N/A   Overcast
4:15 AM 57.2 °F 40.8 °F 54% 29.93 in 10.0 mi South 8.1 mph - N/A   Overcast
4:55 AM 57.6 °F 31.5 °F 37% 29.91 in 10.0 mi South 11.5 mph - N/A   Overcast
5:15 AM 58.1 °F 29.7 °F 34% 29.91 in 10.0 mi South 8.1 mph 16.1 mph N/A   Overcast
5:55 AM 57.7 °F 28.6 °F 33% 29.90 in 10.0 mi South 11.5 mph - N/A   Overcast
6:15 AM 57.7 °F 28.6 °F 33% 29.89 in 10.0 mi South 12.7 mph 18.4 mph N/A   Overcast
6:35 AM 57.7 °F 29.5 °F 34% 29.89 in 10.0 mi South 8.1 mph 11.5 mph N/A   Overcast
6:55 AM 57.7 °F 33.6 °F 40% 29.88 in 10.0 mi South 16.1 mph 20.7 mph N/A   Overcast
7:15 AM 57.6 °F 39.9 °F 52% 29.88 in 10.0 mi South 11.5 mph 20.7 mph N/A   Overcast
7:35 AM 57.4 °F 41.9 °F 56% 29.88 in 10.0 mi South 9.2 mph - N/A   Overcast
7:55 AM 56.8 °F 44.6 °F 64% 29.88 in 10.0 mi South 12.7 mph 21.9 mph N/A   Mostly Cloudy
8:15 AM 55.9 °F 47.7 °F 74% 29.88 in 10.0 mi South 13.8 mph 18.4 mph N/A   Scattered Clouds
8:35 AM 55.6 °F 49.3 °F 79% 29.88 in 10.0 mi South 12.7 mph - N/A   Scattered Clouds
8:55 AM 56.3 °F 50.2 °F 80% 29.88 in 10.0 mi South 12.7 mph 19.6 mph N/A   Mostly Cloudy
9:15 AM 57.0 °F 50.5 °F 79% 29.87 in 10.0 mi South 15.0 mph 20.7 mph N/A   Mostly Cloudy
9:35 AM 58.1 °F 50.4 °F 75% 29.87 in 10.0 mi SSW 16.1 mph 20.7 mph N/A   Mostly Cloudy
9:55 AM 59.0 °F 50.0 °F 72% 29.87 in 10.0 mi South 15.0 mph 23.0 mph N/A   Mostly Cloudy
10:15 AM 59.5 °F 50.4 °F 72% 29.85 in 10.0 mi South 17.3 mph 25.3 mph N/A   Overcast
10:35 AM 60.1 °F 51.3 °F 73% 29.86 in 10.0 mi South 18.4 mph 26.5 mph N/A   Overcast
10:55 AM 61.5 °F 51.8 °F 70% 29.85 in 10.0 mi South 13.8 mph 24.2 mph N/A   Overcast
11:15 AM 63.0 °F 52.0 °F 67% 29.84 in 10.0 mi SSW 18.4 mph 28.8 mph N/A   Overcast
11:35 AM 63.7 °F 51.8 °F 65% 29.83 in 10.0 mi South 20.7 mph 26.5 mph N/A   Overcast
11:55 AM 64.6 °F 52.3 °F 64% 29.81 in 10.0 mi SSW 19.6 mph 23.0 mph N/A   Mostly Cloudy
12:15 PM 65.5 °F 52.9 °F 64% 29.81 in 10.0 mi SSW 19.6 mph 28.8 mph N/A   Overcast
12:35 PM 66.2 °F 52.7 °F 62% 29.80 in 10.0 mi South 18.4 mph 27.6 mph N/A   Overcast
12:55 PM 67.1 °F 53.1 °F 61% 29.80 in 10.0 mi SSW 13.8 mph 21.9 mph N/A   Overcast
1:15 PM 67.5 °F 53.4 °F 61% 29.79 in 10.0 mi South 17.3 mph 24.2 mph N/A   Overcast
1:35 PM 68.7 °F 54.0 °F 59% 29.77 in 10.0 mi South 20.7 mph 28.8 mph N/A   Overcast
1:55 PM 68.2 °F 54.5 °F 62% 29.76 in 10.0 mi SSW 20.7 mph 26.5 mph N/A   Overcast
2:15 PM 68.0 °F 55.4 °F 64% 29.75 in 10.0 mi SSW 18.4 mph 27.6 mph N/A   Overcast
2:35 PM 68.7 °F 56.5 °F 65% 29.73 in 10.0 mi SSW 23.0 mph 28.8 mph N/A   Overcast
2:55 PM 67.5 °F 56.1 °F 67% 29.72 in 10.0 mi SSW 21.9 mph 28.8 mph N/A   Overcast
3:15 PM 68.0 °F 56.3 °F 66% 29.71 in 10.0 mi SSW 21.9 mph 27.6 mph N/A   Overcast
3:35 PM 68.2 °F 56.1 °F 65% 29.70 in 10.0 mi SSW 23.0 mph 26.5 mph N/A   Overcast
3:55 PM 69.4 °F 56.7 °F 64% 29.69 in 10.0 mi SSW 19.6 mph 27.6 mph N/A   Mostly Cloudy
4:15 PM 68.0 °F 56.5 °F 67% 29.67 in 10.0 mi South 23.0 mph 27.6 mph N/A   Mostly Cloudy
4:35 PM 68.4 °F 56.7 °F 66% 29.67 in 10.0 mi SSW 19.6 mph 26.5 mph N/A   Overcast
4:55 PM 68.2 °F 56.5 °F 66% 29.67 in 10.0 mi SSW 20.7 mph 24.2 mph N/A   Mostly Cloudy
5:15 PM 68.7 °F 56.8 °F 66% 29.65 in 10.0 mi South 17.3 mph 25.3 mph N/A   Scattered Clouds
5:35 PM 69.4 °F 56.7 °F 64% 29.65 in 10.0 mi SSW 19.6 mph 26.5 mph N/A   Mostly Cloudy
5:55 PM 69.3 °F 56.8 °F 65% 29.64 in 10.0 mi SSW 20.7 mph 27.6 mph N/A   Scattered Clouds
6:15 PM 69.8 °F 56.8 °F 63% 29.64 in 10.0 mi SSW 17.3 mph 20.7 mph N/A   Clear
6:35 PM 69.3 °F 56.5 °F 64% 29.64 in 10.0 mi SSW 18.4 mph 23.0 mph N/A   Clear
6:55 PM 68.9 °F 56.7 °F 65% 29.64 in 10.0 mi SSW 12.7 mph - N/A   Clear
7:15 PM 68.2 °F 56.5 °F 66% 29.65 in 10.0 mi SSW 12.7 mph 18.4 mph N/A   Clear
7:35 PM 67.1 °F 56.5 °F 69% 29.65 in 10.0 mi SSW 13.8 mph 24.2 mph N/A   Clear
7:55 PM 66.2 °F 56.5 °F 71% 29.65 in 10.0 mi SSW 9.2 mph - N/A   Clear
8:15 PM 65.3 °F 56.7 °F 74% 29.65 in 10.0 mi SSW 10.4 mph - N/A   Clear
8:35 PM 64.9 °F 56.7 °F 74% 29.66 in 10.0 mi SSW 8.1 mph 16.1 mph N/A   Clear
8:55 PM 64.6 °F 56.8 °F 76% 29.67 in 10.0 mi SSW 8.1 mph - N/A   Clear
9:15 PM 64.8 °F 57.2 °F 76% 29.67 in 10.0 mi SSW 9.2 mph - N/A   Clear
9:35 PM 64.4 °F 57.2 °F 77% 29.67 in 10.0 mi SSW 5.8 mph - N/A   Clear
9:55 PM 63.9 °F 57.2 °F 79% 29.67 in 10.0 mi SSW 8.1 mph - N/A   Clear
10:15 PM 63.7 °F 57.2 °F 79% 29.67 in 10.0 mi South 5.8 mph - N/A   Clear
10:35 PM 63.7 °F 57.2 °F 79% 29.67 in 10.0 mi South 8.1 mph - N/A   Clear
10:55 PM 63.9 °F 57.4 °F 79% 29.67 in 10.0 mi SSW 5.8 mph - N/A   Clear
11:15 PM 63.7 °F 57.6 °F 80% 29.68 in 10.0 mi SSW 4.6 mph - N/A   Clear
11:35 PM 63.7 °F 57.6 °F 80% 29.68 in 10.0 mi SSW 5.8 mph - N/A   Clear
11:55 PM 63.0 °F 57.6 °F 82% 29.68 in 10.0 mi SSW 9.2 mph - N/A   Clear